When you browse on this site, cookies collect data to enhance your experience and personalize the content and advertising you see.
Visit our Privacy Policy to learn more. By continuing to use the site, you agree to this use of cookies and data.
  • In Romania
  • List of Countries
  • For 7 days
  • Water Temperature
  • Satellite Maps
  • Weather Map
  • Weather Widgets
  • user-avatar
    Login

    Hourly Weather Salta

    Today, 25 April, Thursday

    Time Temperature Precipitation Wind Pressure Humidity
    00:00 +15°C° 0.1 mm 0 mps 652 mmHg 93%
    01:00 +14°C° 0.1 mm 0 mps 652 mmHg 92%
    02:00 +14°C° 0.1 mm 0 mps 652 mmHg 91%
    03:00 +14°C° 0.1 mm 0 mps 652 mmHg 89%
    04:00 +14°C° 0.1 mm 0 mps 651 mmHg 87%
    05:00 +14°C° 0.1 mm 0 mps 651 mmHg 85%
    06:00 +16°C° 0 mm 1 mps 652 mmHg 82%
    07:00 +18°C° 0 mm 1 mps 652 mmHg 79%
    08:00 +19°C° 0 mm 1 mps 653 mmHg 75%
    09:00 +20°C° 0.1 mm 1 mps 653 mmHg 75%
    10:00 +20°C° 0.1 mm 2 mps 654 mmHg 75%
    11:00 +21°C° 0.1 mm 3 mps 654 mmHg 74%
    12:00 +21°C° 0.1 mm 3 mps 653 mmHg 77%
    13:00 +21°C° 0.1 mm 3 mps 652 mmHg 79%
    14:00 +21°C° 0.1 mm 3 mps 651 mmHg 81%
    15:00 +20°C° 0.1 mm 2 mps 651 mmHg 84%
    16:00 +19°C° 0.1 mm 2 mps 651 mmHg 88%
    17:00 +19°C° 0.1 mm 2 mps 651 mmHg 91%
    18:00 +19°C° 0.1 mm 1 mps 651 mmHg 92%
    19:00 +18°C° 0.1 mm 1 mps 651 mmHg 94%
    20:00 +16°C° 0.1 mm 1 mps 652 mmHg 96%
    21:00 +16°C° 0 mm 1 mps 652 mmHg 95%
    22:00 +16°C° 0 mm 1 mps 652 mmHg 94%
    23:00 +15°C° 0 mm 1 mps 652 mmHg 93%

    Tomorrow, 26 April, Friday

    Time Temperature Precipitation Wind Pressure Humidity
    00:00 +15°C° 0 mm 1 mps 652 mmHg 91%
    01:00 +15°C° 0 mm 1 mps 652 mmHg 88%
    02:00 +15°C° 0 mm 1 mps 652 mmHg 86%
    03:00 +15°C° 0 mm 1 mps 652 mmHg 85%
    04:00 +15°C° 0 mm 1 mps 652 mmHg 84%
    05:00 +14°C° 0 mm 1 mps 651 mmHg 83%
    06:00 +15°C° 0.1 mm 1 mps 652 mmHg 81%
    07:00 +16°C° 0.1 mm 1 mps 652 mmHg 79%
    08:00 +18°C° 0.1 mm 1 mps 653 mmHg 78%
    09:00 +18°C° 0 mm 2 mps 653 mmHg 76%
    10:00 +19°C° 0 mm 2 mps 653 mmHg 74%
    11:00 +20°C° 0 mm 3 mps 653 mmHg 73%
    12:00 +20°C° 0 mm 3 mps 652 mmHg 71%
    13:00 +21°C° 0 mm 3 mps 652 mmHg 70%
    14:00 +21°C° 0 mm 3 mps 651 mmHg 68%
    15:00 +20°C° 0.1 mm 2 mps 651 mmHg 75%
    16:00 +19°C° 0.1 mm 2 mps 650 mmHg 82%
    17:00 +19°C° 0.1 mm 1 mps 650 mmHg 88%
    18:00 +18°C° 0.1 mm 1 mps 651 mmHg 90%
    19:00 +16°C° 0.1 mm 1 mps 651 mmHg 92%
    20:00 +16°C° 0.1 mm 1 mps 652 mmHg 95%
    21:00 +15°C° 0 mm 1 mps 652 mmHg 92%
    22:00 +15°C° 0 mm 1 mps 653 mmHg 89%
    23:00 +15°C° 0 mm 1 mps 653 mmHg 87%

    Day after tomorrow, 27 April, Saturday

    Time Temperature Precipitation Wind Pressure Humidity
    00:00 +15°C° 0 mm 1 mps 652 mmHg 85%
    01:00 +14°C° 0 mm 1 mps 652 mmHg 83%
    02:00 +14°C° 0 mm 1 mps 652 mmHg 81%
    03:00 +14°C° 0 mm 1 mps 652 mmHg 80%
    04:00 +12°C° 0 mm 0 mps 652 mmHg 79%
    05:00 +12°C° 0 mm 0 mps 652 mmHg 78%
    06:00 +13°C° 0 mm 0 mps 653 mmHg 74%
    07:00 +14°C° 0 mm 0 mps 653 mmHg 71%
    08:00 +15°C° 0 mm 0 mps 654 mmHg 67%
    09:00 +20°C° 0 mm 1 mps 655 mmHg 61%
    10:00 +22°C° 0 mm 1 mps 655 mmHg 55%
    11:00 +24°C° 0 mm 2 mps 656 mmHg 49%
    12:00 +25°C° 0 mm 2 mps 655 mmHg 47%
    13:00 +25°C° 0 mm 2 mps 654 mmHg 46%
    14:00 +26°C° 0 mm 2 mps 653 mmHg 44%
    15:00 +25°C° 0 mm 2 mps 653 mmHg 48%
    16:00 +24°C° 0 mm 2 mps 652 mmHg 52%
    17:00 +24°C° 0 mm 2 mps 652 mmHg 56%
    18:00 +21°C° 0 mm 1 mps 651 mmHg 65%
    19:00 +19°C° 0 mm 1 mps 651 mmHg 74%
    20:00 +15°C° 0 mm 0 mps 651 mmHg 84%
    21:00 +14°C° 0 mm 0 mps 651 mmHg 85%
    22:00 +14°C° 0 mm 0 mps 652 mmHg 85%
    23:00 +14°C° 0 mm 0 mps 652 mmHg 86%

    28 April, Sunday

    Time Temperature Precipitation Wind Pressure Humidity
    00:00 +14°C° 0 mm 0 mps 652 mmHg 86%
    01:00 +14°C° 0 mm 0 mps 651 mmHg 85%
    02:00 +14°C° 0 mm 0 mps 651 mmHg 84%
    03:00 +14°C° 0 mm 0 mps 651 mmHg 82%
    04:00 +14°C° 0 mm 0 mps 651 mmHg 80%
    05:00 +14°C° 0 mm 0 mps 651 mmHg 78%
    06:00 +15°C° 0 mm 0 mps 652 mmHg 74%
    07:00 +16°C° 0 mm 0 mps 652 mmHg 69%
    08:00 +17°C° 0 mm 0 mps 653 mmHg 65%
    09:00 +21°C° 0 mm 1 mps 654 mmHg 59%
    10:00 +23°C° 0 mm 1 mps 654 mmHg 53%
    11:00 +26°C° 0 mm 2 mps 655 mmHg 47%
    12:00 +26°C° 0 mm 2 mps 654 mmHg 45%
    13:00 +27°C° 0 mm 2 mps 653 mmHg 43%
    14:00 +28°C° 0 mm 3 mps 652 mmHg 41%
    15:00 +27°C° 0 mm 2 mps 652 mmHg 45%
    16:00 +26°C° 0 mm 2 mps 651 mmHg 50%
    17:00 +25°C° 0 mm 2 mps 651 mmHg 54%
    18:00 +22°C° 0 mm 1 mps 651 mmHg 64%
    19:00 +20°C° 0 mm 1 mps 650 mmHg 75%
    20:00 +16°C° 0 mm 0 mps 650 mmHg 85%
    21:00 +16°C° 0 mm 1 mps 650 mmHg 86%
    22:00 +16°C° 0 mm 1 mps 650 mmHg 87%
    23:00 +16°C° 0 mm 1 mps 650 mmHg 89%

    29 April, Monday

    Time Temperature Precipitation Wind Pressure Humidity
    00:00 +16°C° 0 mm 1 mps 650 mmHg 88%
    01:00 +16°C° 0 mm 1 mps 649 mmHg 87%
    02:00 +16°C° 0 mm 1 mps 649 mmHg 86%
    03:00 +16°C° 0 mm 1 mps 649 mmHg 84%
    04:00 +16°C° 0 mm 1 mps 649 mmHg 82%
    05:00 +16°C° 0 mm 1 mps 649 mmHg 80%
    06:00 +18°C° 0 mm 1 mps 649 mmHg 76%
    07:00 +19°C° 0 mm 1 mps 650 mmHg 73%
    08:00 +20°C° 0 mm 1 mps 651 mmHg 69%
    09:00 +21°C° 0 mm 1 mps 651 mmHg 65%
    10:00 +21°C° 0 mm 2 mps 651 mmHg 62%
    11:00 +24°C° 0 mm 2 mps 651 mmHg 58%
    12:00 +25°C° 0 mm 2 mps 651 mmHg 56%
    13:00 +26°C° 0 mm 2 mps 650 mmHg 54%
    14:00 +27°C° 0 mm 2 mps 650 mmHg 52%
    15:00 +26°C° 0 mm 2 mps 650 mmHg 57%
    16:00 +25°C° 0 mm 2 mps 650 mmHg 62%
    17:00 +24°C° 0 mm 2 mps 649 mmHg 67%
    18:00 +23°C° 0.1 mm 1 mps 650 mmHg 74%
    19:00 +21°C° 0.1 mm 1 mps 650 mmHg 81%
    20:00 +20°C° 0.1 mm 1 mps 651 mmHg 88%
    21:00 +18°C° 0.2 mm 0 mps 651 mmHg 90%
    22:00 +17°C° 0.2 mm 0 mps 651 mmHg 92%
    23:00 +17°C° 0.2 mm 0 mps 651 mmHg 94%

    30 April, Tuesday

    Time Temperature Precipitation Wind Pressure Humidity
    00:00 +17°C° 0.1 mm 0 mps 651 mmHg 94%
    01:00 +16°C° 0.1 mm 0 mps 651 mmHg 93%
    02:00 +16°C° 0.1 mm 0 mps 651 mmHg 93%
    03:00 +16°C° 0.1 mm 0 mps 651 mmHg 94%
    04:00 +15°C° 0.1 mm 0 mps 651 mmHg 95%
    05:00 +15°C° 0.1 mm 0 mps 651 mmHg 95%
    06:00 +16°C° 0.1 mm 0 mps 651 mmHg 94%
    07:00 +16°C° 0.1 mm 0 mps 652 mmHg 93%
    08:00 +19°C° 0.1 mm 1 mps 653 mmHg 92%
    09:00 +19°C° 0.2 mm 1 mps 653 mmHg 91%
    10:00 +19°C° 0.2 mm 1 mps 653 mmHg 90%
    11:00 +18°C° 0.2 mm 2 mps 653 mmHg 89%
    12:00 +18°C° 0.2 mm 2 mps 652 mmHg 91%
    13:00 +18°C° 0.2 mm 2 mps 651 mmHg 93%
    14:00 +18°C° 0.2 mm 2 mps 650 mmHg 95%
    15:00 +18°C° 0.1 mm 2 mps 650 mmHg 94%
    16:00 +18°C° 0.1 mm 1 mps 650 mmHg 94%
    17:00 +18°C° 0.1 mm 1 mps 650 mmHg 94%
    18:00 +18°C° 0 mm 1 mps 650 mmHg 94%
    19:00 +18°C° 0 mm 1 mps 651 mmHg 94%
    20:00 +16°C° 0 mm 1 mps 651 mmHg 94%
    21:00 +15°C° 0 mm 0 mps 651 mmHg 95%
    22:00 +14°C° 0 mm 0 mps 652 mmHg 95%
    23:00 +14°C° 0 mm 0 mps 652 mmHg 95%
    Show more